When you browse on this site, cookies collect data to enhance your experience and personalize the content and advertising you see.
Visit our Privacy Policy to learn more. By continuing to use the site, you agree to this use of cookies and data.
  • In Hungary
  • List of Countries
  • For 7 days
  • Water Temperature
  • Weather Map
  • News
  • Weather Widgets
  • user-avatar
    Login

    Hourly Weather Florianki

    Today, 20 August, Tuesday

    Time Temperature Precipitation Wind Pressure Humidity
    00:00 +20°C° 0 mm 1 mps 752 mmHg 85%
    01:00 +19°C° 0 mm 1 mps 752 mmHg 87%
    02:00 +19°C° 0 mm 1 mps 753 mmHg 86%
    03:00 +19°C° 0 mm 1 mps 753 mmHg 85%
    04:00 +19°C° 0 mm 1 mps 753 mmHg 85%
    05:00 +20°C° 0 mm 1 mps 753 mmHg 82%
    06:00 +20°C° 0 mm 1 mps 753 mmHg 79%
    07:00 +21°C° 0 mm 1 mps 753 mmHg 76%
    08:00 +23°C° 0 mm 1 mps 754 mmHg 66%
    09:00 +24°C° 0 mm 2 mps 754 mmHg 56%
    10:00 +26°C° 0 mm 2 mps 754 mmHg 47%
    11:00 +26°C° 0 mm 2 mps 754 mmHg 45%
    12:00 +27°C° 0 mm 3 mps 753 mmHg 43%
    13:00 +28°C° 0 mm 3 mps 753 mmHg 41%
    14:00 +27°C° 0 mm 3 mps 753 mmHg 43%
    15:00 +27°C° 0 mm 3 mps 753 mmHg 44%
    16:00 +27°C° 0 mm 4 mps 752 mmHg 46%
    17:00 +25°C° 1.1 mm 4 mps 752 mmHg 57%
    18:00 +22°C° 1.1 mm 4 mps 752 mmHg 67%
    19:00 +20°C° 1.1 mm 3 mps 752 mmHg 78%
    20:00 +19°C° 1.8 mm 4 mps 752 mmHg 81%
    21:00 +19°C° 1.8 mm 5 mps 752 mmHg 85%
    22:00 +17°C° 1.8 mm 6 mps 752 mmHg 89%
    23:00 +17°C° 1.5 mm 6 mps 752 mmHg 90%

    Tomorrow, 21 August, Wednesday

    Time Temperature Precipitation Wind Pressure Humidity
    00:00 +16°C° 1.5 mm 6 mps 752 mmHg 92%
    01:00 +16°C° 1.5 mm 7 mps 752 mmHg 93%
    02:00 +16°C° 0.5 mm 7 mps 752 mmHg 92%
    03:00 +15°C° 0.5 mm 7 mps 752 mmHg 92%
    04:00 +15°C° 0.5 mm 7 mps 752 mmHg 91%
    05:00 +15°C° 0.1 mm 6 mps 753 mmHg 91%
    06:00 +15°C° 0.1 mm 6 mps 754 mmHg 90%
    07:00 +15°C° 0.1 mm 6 mps 754 mmHg 90%
    08:00 +15°C° 0 mm 5 mps 755 mmHg 88%
    09:00 +15°C° 0 mm 5 mps 756 mmHg 86%
    10:00 +17°C° 0 mm 4 mps 756 mmHg 84%
    11:00 +18°C° 0 mm 4 mps 756 mmHg 79%
    12:00 +19°C° 0 mm 3 mps 757 mmHg 74%
    13:00 +20°C° 0 mm 3 mps 757 mmHg 69%
    14:00 +20°C° 0 mm 3 mps 757 mmHg 66%
    15:00 +21°C° 0 mm 2 mps 757 mmHg 64%
    16:00 +21°C° 0 mm 2 mps 757 mmHg 61%
    17:00 +20°C° 0 mm 2 mps 757 mmHg 66%
    18:00 +20°C° 0 mm 1 mps 757 mmHg 70%
    19:00 +19°C° 0 mm 1 mps 757 mmHg 74%
    20:00 +18°C° 0 mm 1 mps 757 mmHg 76%
    21:00 +18°C° 0 mm 1 mps 757 mmHg 78%
    22:00 +16°C° 0 mm 1 mps 758 mmHg 80%
    23:00 +16°C° 0 mm 1 mps 758 mmHg 81%

    Day after tomorrow, 22 August, Thursday

    Time Temperature Precipitation Wind Pressure Humidity
    00:00 +15°C° 0 mm 1 mps 758 mmHg 82%
    01:00 +14°C° 0 mm 0 mps 758 mmHg 83%
    02:00 +14°C° 0 mm 0 mps 758 mmHg 84%
    03:00 +15°C° 0 mm 1 mps 758 mmHg 85%
    04:00 +14°C° 0 mm 1 mps 758 mmHg 85%
    05:00 +15°C° 0 mm 1 mps 758 mmHg 82%
    06:00 +16°C° 0 mm 1 mps 758 mmHg 79%
    07:00 +18°C° 0 mm 1 mps 758 mmHg 76%
    08:00 +19°C° 0 mm 2 mps 758 mmHg 71%
    09:00 +20°C° 0 mm 2 mps 758 mmHg 65%
    10:00 +21°C° 0 mm 2 mps 758 mmHg 60%
    11:00 +23°C° 0 mm 2 mps 758 mmHg 56%
    12:00 +23°C° 0 mm 2 mps 758 mmHg 53%
    13:00 +24°C° 0 mm 2 mps 757 mmHg 49%
    14:00 +24°C° 0 mm 2 mps 757 mmHg 49%
    15:00 +24°C° 0 mm 2 mps 757 mmHg 48%
    16:00 +25°C° 0 mm 2 mps 757 mmHg 47%
    17:00 +23°C° 0 mm 2 mps 757 mmHg 52%
    18:00 +21°C° 0 mm 2 mps 757 mmHg 56%
    19:00 +20°C° 0 mm 2 mps 757 mmHg 60%
    20:00 +19°C° 0 mm 2 mps 757 mmHg 62%
    21:00 +18°C° 0 mm 2 mps 757 mmHg 64%
    22:00 +18°C° 0 mm 2 mps 758 mmHg 65%
    23:00 +17°C° 0 mm 2 mps 758 mmHg 67%

    23 August, Friday

    Time Temperature Precipitation Wind Pressure Humidity
    00:00 +17°C° 0 mm 2 mps 757 mmHg 69%
    01:00 +16°C° 0 mm 1 mps 757 mmHg 70%
    02:00 +16°C° 0 mm 1 mps 757 mmHg 71%
    03:00 +16°C° 0 mm 1 mps 757 mmHg 72%
    04:00 +15°C° 0 mm 1 mps 757 mmHg 73%
    05:00 +16°C° 0 mm 1 mps 758 mmHg 71%
    06:00 +18°C° 0 mm 1 mps 758 mmHg 69%
    07:00 +19°C° 0 mm 1 mps 758 mmHg 66%
    08:00 +20°C° 0 mm 2 mps 758 mmHg 60%
    09:00 +21°C° 0 mm 2 mps 758 mmHg 54%
    10:00 +24°C° 0 mm 2 mps 759 mmHg 48%
    11:00 +25°C° 0 mm 2 mps 758 mmHg 46%
    12:00 +25°C° 0 mm 2 mps 758 mmHg 44%
    13:00 +26°C° 0 mm 2 mps 758 mmHg 41%
    14:00 +26°C° 0 mm 2 mps 758 mmHg 42%
    15:00 +26°C° 0 mm 2 mps 758 mmHg 42%
    16:00 +26°C° 0 mm 3 mps 757 mmHg 43%
    17:00 +24°C° 0 mm 2 mps 757 mmHg 47%
    18:00 +23°C° 0 mm 2 mps 757 mmHg 52%
    19:00 +20°C° 0 mm 2 mps 757 mmHg 57%
    20:00 +20°C° 0 mm 3 mps 758 mmHg 59%
    21:00 +19°C° 0 mm 3 mps 758 mmHg 61%
    22:00 +18°C° 0 mm 3 mps 758 mmHg 63%
    23:00 +18°C° 0 mm 3 mps 758 mmHg 65%

    24 August, Saturday

    Time Temperature Precipitation Wind Pressure Humidity
    00:00 +17°C° 0 mm 3 mps 758 mmHg 66%
    01:00 +17°C° 0 mm 3 mps 758 mmHg 68%
    02:00 +16°C° 0 mm 3 mps 758 mmHg 70%
    03:00 +16°C° 0 mm 3 mps 758 mmHg 72%
    04:00 +16°C° 0 mm 3 mps 757 mmHg 73%
    05:00 +17°C° 0 mm 3 mps 757 mmHg 71%
    06:00 +18°C° 0 mm 4 mps 757 mmHg 68%
    07:00 +19°C° 0 mm 4 mps 757 mmHg 65%
    08:00 +20°C° 0 mm 5 mps 757 mmHg 60%
    09:00 +21°C° 0 mm 5 mps 757 mmHg 55%
    10:00 +23°C° 0 mm 6 mps 757 mmHg 50%
    11:00 +23°C° 0 mm 6 mps 757 mmHg 48%
    12:00 +24°C° 0 mm 6 mps 756 mmHg 46%
    13:00 +26°C° 0 mm 6 mps 756 mmHg 44%
    14:00 +26°C° 0 mm 6 mps 756 mmHg 44%
    15:00 +26°C° 0 mm 6 mps 755 mmHg 44%
    16:00 +26°C° 0 mm 6 mps 755 mmHg 44%
    17:00 +23°C° 0 mm 5 mps 755 mmHg 49%
    18:00 +22°C° 0 mm 4 mps 755 mmHg 55%
    19:00 +20°C° 0 mm 4 mps 754 mmHg 60%
    20:00 +20°C° 0 mm 4 mps 754 mmHg 62%
    21:00 +19°C° 0 mm 4 mps 754 mmHg 64%
    22:00 +18°C° 0 mm 4 mps 754 mmHg 66%
    23:00 +18°C° 0 mm 4 mps 754 mmHg 68%

    25 August, Sunday

    Time Temperature Precipitation Wind Pressure Humidity
    00:00 +18°C° 0 mm 4 mps 754 mmHg 71%
    01:00 +17°C° 0 mm 3 mps 754 mmHg 74%
    02:00 +17°C° 0 mm 4 mps 753 mmHg 75%
    03:00 +15°C° 0 mm 4 mps 753 mmHg 77%
    04:00 +15°C° 0 mm 4 mps 753 mmHg 79%
    05:00 +17°C° 0 mm 4 mps 753 mmHg 76%
    06:00 +17°C° 0 mm 4 mps 752 mmHg 74%
    07:00 +18°C° 0 mm 4 mps 752 mmHg 71%
    08:00 +20°C° 0 mm 4 mps 752 mmHg 65%
    09:00 +22°C° 0 mm 3 mps 752 mmHg 60%
    10:00 +25°C° 0 mm 3 mps 752 mmHg 55%
    11:00 +27°C° 0 mm 3 mps 752 mmHg 52%
    12:00 +28°C° 0 mm 3 mps 752 mmHg 50%
    13:00 +29°C° 0 mm 3 mps 751 mmHg 47%
    14:00 +30°C° 0 mm 3 mps 751 mmHg 47%
    15:00 +30°C° 0 mm 3 mps 751 mmHg 47%
    16:00 +31°C° 0 mm 3 mps 750 mmHg 47%
    17:00 +29°C° 0.2 mm 3 mps 750 mmHg 53%
    18:00 +27°C° 0.2 mm 3 mps 750 mmHg 59%
    19:00 +26°C° 0.2 mm 3 mps 750 mmHg 66%
    20:00 +25°C° 0.5 mm 4 mps 750 mmHg 69%
    21:00 +23°C° 0.5 mm 4 mps 750 mmHg 72%
    22:00 +23°C° 0.5 mm 4 mps 750 mmHg 75%
    23:00 +23°C° 0.1 mm 4 mps 750 mmHg 75%
    Show more